Starlink 30120

operational
NORAD ID: 56824 Int'l Des: 2023-079 Owner: SPXS Country: US Constellation: starlink
LEOCIRCULAR

About Starlink 30120

Description loading...

Live Position

Loading 3D Globe...

Upcoming Passes

Altitude History

Altitude vs Time

uPlot chart will show altitude changes over time

Two-Line Element Set

1 56824U 23079B 26094.89796633 .00002235 00000-0 92975-4 0 9996
2 56824 43.0010 319.2846 0001441 266.4924 93.5762 15.26742171157215
Epoch: Apr 4, 2026 • Age: 20 hours

Current Status

Altitude 485.1 km
Velocity 7.63 km/s
Sub-Earth Point 15.95°N, 26.82°E
Launch Date Jun 4, 2023
Age 2.8 years
Type internet

Technical Details

Classification Payload
Mass 730.00 kg
Dry Mass 700.00 kg
Total Mass 730.00 kg
Length 0.30 m
Diameter 4.10 m
Span 29.00 m
Shape Box + pan
Manufacturer SPXS
Bus Type Starlink V2M
Phase Status In Orbit
Owner/State SPXS/US

Large Constellations

Loading constellations...